Airfield :
LOGIN :

Register | Disclaimer

   EN    FR    IT 

 










Legend :    VFR   Marginal VFR   IFR   Intensive IFR   Very Intensive IFR
Visi :
Ceiling :
>= 8 km
>= 3000ft
5 to 8 km
1000 to 3000 ft
1500m to 5 km
500 to 1000 ft
800 to 1500m
200 to 500 ft
< 800m
< 200 ft
Symbols :   Thunderstorms  Fog  Heavy snow  Heavy precipitations  Wind > 20 kt
SIGMETs :     Misc.  Thunderstorms  Icing  Turbulence  Mountain Waves  Volcanic Ashes






- Airport Elevation : 46 ft
- IATA code : PAF


LPMT - Montijo Air Base

CURRENT METAR :
  • 060500Z VRB02KT 9999 FEW012 BKN020 14/13 Q1017

EXPIRED METARs :
  • 060400Z 14004KT 9999 FEW012 BKN018 14/13 Q1017

TAF TAF LPMT
Valid from the 06 at 00:00 until the 07 at 00:00 UTC


052304Z 0600/0624 VRB02KT 9999 FEW020
PROB40 0600/0609 0400 FG BKN002
BECMG 0608/0610 18008KT 8000 -RA FEW020 SCT025
TEMPO 0609/0622 3000 RADZ BKN012 BKN018
PROB30
TEMPO 0610/0616 2000 +RADZ BR BKN008 BKN014



MET'MAP, your aeronautical weather chart ! - Copyright ORBIFLY December 2007 - Disclaimer

ORBIFLY MET'MAP TEAM :

Programming & Development : Alexandra Zaïnal
Concept & original design : Baudouin d'Aumeries
Assistance for programming : Marc-Olivier Méhu
Technical & hardware support : Manuel Goepfert

Contact : metmap@orbifly.com




SOURCES & CREDITS :

   NOAA